Location: *
(60.1759°S, 155.0663°W)
Time: 05:42:55
(UTC+00:00)

RESURS DK-1 - Pass Details

Date: 17 September 2019
Orbit: 558 x 560 km, 69.9° (Epoch: 22 October)

Event Time Altitude Azimuth Distance (km) Brightness Sun altitude
Exits shadow 13:47:32 27° 240° (WSW) 1,136 3.6 -19.4°
Maximum altitude 13:48:50 32° 206° (SSW) 998 3.6 -19.2°
Drops below altitude 10° 13:52:41 10° 141° (SE) 1,894 6.1 -18.8°
Sets 13:55:06 0° 131° (SE) 2,795 7.5 -18.6°
